SCP
1 2 2 1 1 1 1 2 2 3 3 3 3 2 2 1 1 1 1 1 1 1 1 1 1 1 1 1 1 1 1 1 1 1 1 1 1 1 1 1 1 1 1
2 2 2 1 1 1 1 1 2 3 3 4 4 3 3 3 2 2 1 1 1 1 1 1 1 1 1 1 1 1 1 1 1 1 1 1 1 1 1 1 1 1 1
2 2 2 2 1 1 1 1 1 2 3 4 4 4 4 4 4 3 2 2 1 1 1 1 2 2 2 1 1 1 1 1 1 2 1 1 1 1 1 1 1 1 2
2 2 3 2 2 1 1 1 2 2 2 3 4 4 5 5 5 4 3 3 2 2 1 1 2 2 2 2 2 2 2 2 2 2 2 2 2 2 2 1 1 1 1
2 3 3 2 2 1 1 1 2 2 2 2 3 4 4 4 4 4 4 4 3 2 2 2 2 2 2 2 2 2 2 3 2 2 2 2 2 2 2 2 1 1 1
3 3 3 2 2 1 1 2 2 2 2 2 3 3 3 4 4 4 4 4 4 3 2 2 2 2 2 2 2 3 3 3 3 2 2 3 3 2 2 2 1 1 1
4 3 3 2 2 2 1 2 2 2 2 2 3 3 3 3 5 5 5 4 3 3 3 3 3 2 2 2 2 2 2 3 3 2 2 2 2 2 2 1 1 1 1
3 3 2 2 2 2 2 2 2 2 3 3 3 3 3 3 4 6 6 5 4 4 3 3 3 2 2 2 2 2 2 3 3 3 2 2 2 1 1 1 1 1 1
2 2 2 2 2 2 2 2 2 2 2 3 3 3 3 3 4 6 6 5 4 4 4 3 3 3 3 3 3 3 3 3 3 3 2 1 1 1 1 1 1 1 1
2 2 1 1 1 2 2 2 2 2 2 3 3 3 3 3 4 5 5 4 4 4 4 4 3 3 3 4 4 4 4 3 3 3 2 2 2 2 2 2 2 2 1
2 2 1 2 2 2 2 2 3 3 3 3 3 3 3 4 5 5 5 4 4 4 5 4 4 4 4 4 4 4 4 4 3 3 2 2 2 2 2 2 2 2 2
2 2 2 2 2 2 2 2 3 3 4 5 5 4 4 4 5 5 5 4 4 5 5 4 4 4 4 4 5 4 4 4 4 3 3 3 3 2 2 1 1 2 2
2 2 3 3 3 3 3 3 3 4 5 6 6 5 5 4 4 5 5 4 4 5 5 4 4 5 5 5 5 5 4 4 4 4 4 4 3 3 2 2 1 2 2
2 2 3 4 4 4 4 4 4 4 4 5 5 5 4 3 3 4 5 5 4 5 5 5 6 6 7 7 7 6 6 5 5 5 5 5 4 3 2 2 1 2 2
2 3 4 5 6 6 5 4 4 4 3 3 4 4 3 3 3 4 6 6 6 5 6 6 7 8 8 8 8 8 8 7 7 6 6 5 4 2 2 1 1 2 2
3 4 5 6 7 7 6 5 4 4 4 3 3 4 3 4 5 6 7 8 8 7 7 7 7 8 8 8 7 7 9 9 8 8 7 5 3 2 1 1 1 2 2
4 5 7 8 9 9 8 7 6 5 5 4 4 4 4 5 7 7 7 8 8 7 6 6 6 7 7 6 4 4 7 9 9 9 8 6 3 2 2 2 2 2 2
5 7 10 11 10 10 9 7 7 7 7 7 7 6 6 7 7 6 6 6 6 6 5 5 5 5 5 4 2 2 5 7 8 8 8 6 4 2 2 3 3 3 4
7 8 10 10 10 9 8 7 7 8 10 11 10 8 7 7 6 5 4 4 4 4 4 4 4 4 4 3 2 2 4 6 7 7 7 6 4 3 3 3 4 4 4
7 8 9 9 8 7 7 8 9 9 10 11 10 7 6 6 5 4 4 4 4 4 4 4 4 5 5 4 2 2 4 5 6 6 6 5 3 3 2 3 4 4 4
7 8 10 9 8 7 7 8 9 9 9 8 6 5 4 4 4 4 4 4 4 4 4 4 4 5 5 4 2 2 3 4 5 5 5 4 3 2 1 2 3 4 4
8 9 10 10 8 7 8 8 8 7 6 5 4 4 4 4 4 4 4 4 4 5 5 5 5 5 5 4 3 2 1 2 4 5 5 4 3 1 1 1 2 2 2
8 8 9 9 8 8 7 7 6 5 5 4 4 4 4 4 4 4 4 4 5 6 6 7 7 6 5 5 4 3 2 2 3 4 4 4 2 1 1 1 1 1 2
7 8 9 9 9 8 7 7 6 5 5 5 5 5 6 6 5 5 5 5 5 6 7 8 8 7 6 5 5 5 4 3 3 3 3 3 2 2 2 2 2 1 2
9 10 10 10 9 8 7 7 6 6 6 5 5 6 7 7 7 7 6 5 4 4 5 6 7 6 5 4 4 5 4 4 4 3 3 3 3 4 4 4 4 3 3
10 11 11 11 10 8 7 6 6 7 7 6 6 6 7 8 8 8 6 4 3 3 3 3 4 4 3 2 2 3 3 3 3 4 4 4 4 5 5 5 4 4 4
Wind_Speed
10 10 10 9 9 8 7 7 6 6 4 3 3 3 3 2 2 2 2 1 1 1 1 1 1 1 1 1 1 1 2 2 1 2 2 3 3 2 2 2 1 2 1
11 11 11 10 10 9 8 8 7 7 6 4 3 2 2 2 2 1 2 2 2 2 2 1 1 1 1 1 1 2 2 1 2 2 2 2 3 3 2 2 2 1 1
12 12 12 11 10 9 9 7 7 7 6 5 4 3 3 3 3 3 2 2 2 2 1 1 1 1 1 1 2 2 3 2 2 2 2 2 1 1 3 2 1 1 1
11 12 12 12 11 10 9 8 7 7 6 7 5 5 4 3 3 2 2 2 2 2 2 2 1 2 1 1 2 1 2 3 2 2 1 2 2 2 1 3 3 2 2
11 12 12 12 11 10 9 9 8 8 7 7 6 6 5 4 3 3 3 2 2 2 2 2 2 2 1 1 2 1 2 2 2 2 1 2 2 3 3 1 1 2 2
11 11 11 11 10 10 9 9 9 8 8 8 7 7 5 4 3 3 3 3 2 2 2 2 2 2 1 1 2 2 2 2 2 3 2 2 2 2 2 3 2 2 1
11 12 12 12 11 11 10 9 9 9 9 9 8 7 7 6 6 5 4 3 2 2 2 2 2 2 1 2 2 2 2 2 2 3 2 2 2 2 2 3 2 2 1
10 11 12 11 11 11 11 10 10 9 9 8 7 7 7 6 4 4 3 3 2 2 1 2 2 2 2 2 2 3 3 2 3 3 3 2 2 2 3 3 3 3 2
9 9 10 11 11 10 10 10 10 9 9 8 8 7 7 6 4 4 4 3 2 2 3 3 3 3 2 2 3 2 3 3 3 3 3 3 2 3 3 3 3 4 3
8 9 8 9 9 10 9 10 10 9 8 8 8 7 7 7 6 5 4 3 3 3 3 3 3 3 3 3 3 3 3 3 2 2 2 3 3 2 2 3 3 3 4
8 8 8 8 8 9 9 9 9 9 8 8 7 7 7 7 7 6 5 5 4 4 4 3 3 3 3 3 3 3 3 3 3 3 3 3 3 2 3 3 3 3 3
7 7 8 7 7 7 8 9 9 9 8 8 7 7 7 7 7 6 6 5 4 4 4 3 4 4 4 4 4 4 3 4 4 4 4 4 3 3 3 3 3 3 3
6 6 7 7 6 6 7 8 8 9 9 8 8 7 7 7 7 6 6 5 5 4 4 4 4 4 4 4 4 5 5 5 5 5 4 4 3 4 3 4 4 3 3
5 5 6 6 6 6 6 6 7 8 8 8 8 7 7 7 7 6 6 5 5 5 5 4 4 4 4 5 5 5 5 5 5 5 4 4 4 4 4 4 4 4 4
5 5 5 5 5 5 5 6 6 6 7 8 7 7 7 6 6 6 6 5 5 5 5 5 4 5 4 4 4 5 6 5 5 4 4 4 3 3 4 4 3 4 4
5 5 5 4 5 6 6 6 6 6 7 7 7 6 6 6 6 6 5 5 5 5 4 4 4 4 3 2 2 4 4 5 4 4 4 4 5 4 5 4 4 5 5
5 5 5 5 4 5 6 6 6 6 7 7 6 5 5 6 5 5 5 5 5 5 4 4 4 4 2 3 4 4 5 5 4 4 5 5 2 4 5 5 7 7 7
4 4 4 4 4 4 5 5 6 6 6 6 5 5 5 5 4 4 4 4 4 4 4 4 4 3 3 4 4 4 6 5 5 5 5 5 3 3 4 5 5 6 6
3 3 3 3 3 3 4 5 6 5 5 5 5 5 5 5 5 5 4 4 3 3 3 3 3 3 3 3 3 4 5 4 5 5 5 5 5 2 3 5 5 6 5
1 2 2 2 3 3 4 5 6 5 5 4 4 4 4 5 4 4 3 3 3 3 3 2 2 2 2 3 3 4 4 3 4 4 4 3 3 2 3 5 5 6 5
2 2 2 3 2 3 4 5 5 4 4 4 4 4 4 4 4 3 3 3 3 2 2 2 2 2 2 3 4 4 3 3 3 3 3 1 3 3 4 6 5 5 6
3 3 3 3 3 3 4 5 5 5 5 5 4 4 4 4 4 4 3 3 3 3 3 2 2 2 2 2 3 5 4 4 3 3 3 0 3 4 6 5 4 5 7
3 3 4 4 4 3 4 5 4 4 5 5 4 4 4 3 3 3 3 3 3 2 2 2 2 1 1 3 5 6 6 5 4 3 1 2 2 5 6 6 6 6 5
3 4 4 4 4 4 3 3 3 4 5 5 4 4 4 4 3 2 2 2 2 2 2 2 2 1 1 1 2 3 4 5 5 4 3 5 5 5 4 3 4 4 4
2 3 3 4 4 4 3 3 3 3 4 4 4 4 4 3 3 2 1 1 1 1 1 1 2 2 2 1 2 1 1 1 1 3 3 3 3 3 3 3 3 3 3
2 2 3 4 4 3 3 2 2 2 3 3 3 3 3 3 3 3 3 4 3 4 3 2 2 1 2 1 1 1 1 1 1 3 3 3 3 4 4 4 3 3 3
Wind_Direction
180 178 180 180 179 179 181 184 186 173 182 182 192 181 176 183 175 166 147 174 166 145 211 137 147 225 129 188 191 187 177 204 205 205 190 190 191 188 190 212 220 182 188
179 180 184 185 185 184 186 187 190 185 190 178 192 192 187 190 170 165 155 187 180 191 176 182 213 190 174 196 203 204 234 193 195 249 242 202 180 187 185 190 198 221 216
185 182 187 188 189 190 193 192 192 191 195 187 189 180 181 201 180 182 179 187 187 190 201 202 246 247 246 181 226 220 227 219 202 235 277 282 277 155 160 188 184 210 243
191 186 187 189 190 191 189 192 189 193 193 197 202 200 197 195 193 198 176 181 188 199 200 212 233 258 255 212 240 199 245 243 224 195 239 285 325 291 208 179 162 180 212
192 189 191 190 191 190 189 187 186 191 194 200 199 210 208 202 196 192 172 203 193 208 216 216 229 246 255 251 268 256 264 243 256 248 227 217 222 243 265 250 208 193 199
190 189 188 187 190 189 190 188 185 191 195 201 204 211 211 214 212 212 198 207 193 200 200 212 229 242 258 241 248 249 235 257 275 277 265 247 242 242 246 253 248 234 211
188 185 185 186 190 191 192 189 187 193 197 201 205 208 211 212 216 224 210 230 216 201 183 221 232 247 243 241 241 233 254 242 244 254 263 268 275 286 279 273 273 258 228
186 186 186 188 191 194 195 193 190 194 196 199 201 206 210 215 211 214 229 218 236 229 190 224 232 238 238 241 233 235 226 226 235 244 259 261 257 264 267 275 281 270 240
180 183 184 188 190 195 197 196 192 194 196 198 198 202 208 218 216 206 220 222 222 220 209 226 231 235 233 244 244 237 230 225 232 230 219 244 244 251 261 263 271 279 279
174 176 180 186 189 191 192 196 194 195 197 198 202 197 200 204 208 217 220 228 226 230 223 226 231 230 226 223 231 223 215 218 221 244 266 269 263 264 258 254 256 263 273
171 172 177 182 184 187 187 190 192 195 197 199 200 202 199 199 201 206 213 216 224 222 222 225 222 219 219 217 219 233 209 218 224 232 226 237 267 262 254 251 255 255 260
172 171 172 175 180 185 188 189 193 196 198 197 197 200 202 205 206 203 205 207 210 214 213 217 215 216 213 213 211 220 217 222 228 229 230 234 235 243 261 260 258 259 256
175 174 174 177 183 189 194 193 197 198 195 191 193 194 198 200 205 205 200 199 204 209 211 207 210 216 220 214 209 211 214 220 232 235 232 237 240 247 255 259 260 257 250
179 185 182 182 187 191 193 196 197 196 192 189 192 195 201 203 203 200 200 200 202 204 207 209 210 211 220 221 216 212 215 220 228 233 236 238 236 239 249 250 254 261 262
185 194 193 186 188 188 189 195 197 194 193 190 194 198 201 202 202 200 202 200 200 203 204 206 209 213 217 223 221 218 216 217 224 227 233 236 239 265 269 277 269 261 258
195 195 194 187 189 190 191 189 191 189 190 194 197 196 197 197 200 199 195 193 198 202 202 209 213 218 218 160 200 230 222 218 222 232 238 227 213 219 228 258 278 284 271
207 204 201 196 198 201 195 190 188 187 187 190 192 191 196 198 198 192 186 189 193 194 202 208 211 211 193 171 191 222 228 223 228 236 245 252 213 221 233 221 225 237 244
216 212 210 199 197 198 191 184 178 180 181 182 185 188 191 191 187 182 183 187 194 199 206 210 212 205 182 170 193 221 226 230 234 236 237 247 249 252 261 255 248 249 237
212 209 215 203 187 181 175 173 170 168 172 175 180 179 179 177 173 174 179 185 191 198 205 202 206 203 177 157 185 218 226 224 233 239 236 242 243 242 260 255 255 261 259
175 182 185 168 164 162 162 169 167 164 170 171 175 173 173 168 170 171 178 177 181 190 203 191 191 190 191 168 183 222 229 227 234 233 228 225 259 268 260 258 260 264 270
132 143 148 143 142 149 153 155 153 155 154 152 160 163 164 163 162 162 164 166 167 169 186 186 193 190 196 182 187 217 244 244 248 249 246 186 160 224 247 260 266 274 280
122 130 129 122 120 133 140 136 136 139 143 154 161 161 163 165 154 153 155 160 164 167 178 184 204 195 181 191 200 205 231 280 258 265 272 159 170 218 235 244 264 269 267
115 115 116 116 113 116 126 130 129 141 150 152 156 158 154 156 151 155 159 167 174 185 185 190 201 212 201 178 185 197 207 226 245 263 312 291 239 234 223 228 246 253 259
113 118 121 114 104 99 100 107 117 139 146 152 158 160 158 155 149 163 172 182 185 192 194 207 217 216 205 217 203 198 192 200 220 244 231 226 232 240 260 246 227 242 263
99 108 112 109 101 94 90 95 112 134 145 152 162 166 157 147 145 146 140 177 127 133 210 228 235 247 244 23 9 312 287 291 313 280 254 249 245 245 251 260 263 263 259
102 106 108 106 106 105 96 87 101 134 156 160 169 169 161 158 166 157 135 75 89 91 78 28 326 47 62 90 72 54 39 329 290 267 259 273 278 279 281 282 278 270 272